DW3383 Weather Reports


time (UTC)temp
F
wind
direction
speed
knots
gust
knots
rain 1hr
in
rain 24hr
in
rain mn
in
humidity
%
barometer
mb
20260507120807 32 286 1.7 2.6 0.00 0.00 0.00 83 1016.4
20260507120307 32 275 1.7 4.3 0.00 0.00 0.00 81 1016.4
20260507110807 34 280 2.6 2.6 0.00 0.00 0.00 78 1016.2
20260507110307 34 278 2.6 4.3 0.00 0.00 0.00 77 1016.2
20260507100806 35 283 2.6 4.3 0.00 0.00 0.00 75 1015.8
20260507100307 35 258 2.6 4.3 0.00 0.00 0.00 75 1015.7
20260507090307 35 286 2.6 5.2 0.00 0.00 0.00 73 1015.0
20260507080807 34 165 2.6 4.3 0.00 0.00 0.00 76 1014.4
20260507080308 34 274 1.7 4.3 0.00 0.00 0.00 76 1014.4
20260507070815 36 145 2.6 4.3 0.00 0.00 0.00 72 1013.8
20260507060807 41 286 2.6 4.3 0.00 0.00 0.00 60 1013.0
20260507060307 41 273 2.6 7.8 0.00 0.00 0.00 60 1012.9
20260507050308 43 217 2.6 7.8 0.00 0.00 0.00 59 1012.4
20260507040807 45 273 3.5 5.2 0.00 0.00 0.00 63 1012.0
20260507040306 46 59 2.6 7.8 0.00 0.00 0.00 62 1012.0
20260507020808 50 331 4.3 7.0 0.00 0.00 0.00 56 1011.0
20260507020308 50 274 5.2 10.4 0.00 0.00 0.00 56 1010.6
20260507010807 50 272 4.3 7.8 0.00 0.00 0.00 55 1010.7
20260507010308 50 316 4.3 8.7 0.00 0.00 0.00 56 1010.8
20260507000807 49 286 5.2 7.8 0.00 0.00 0.00 56 1011.0
20260506230807 50 302 4.3 8.7 0.00 0.00 0.00 55 1010.9
20260506230307 50 290 4.3 7.8 0.00 0.00 0.00 55 1010.9
20260506220807 50 343 4.3 7.0 0.00 0.00 0.00 56 1010.9
20260506220309 50 303 4.3 8.7 0.00 0.00 0.00 55 1010.9
20260506210806 51 270 2.6 7.0 0.00 0.00 0.00 54 1010.8
20260506200806 49 293 4.3 7.0 0.00 0.00 0.00 57 1010.9
20260506200308 49 279 5.2 7.8 0.00 0.00 0.00 57 1011.0
20260506190808 49 278 4.3 7.0 0.00 0.00 0.00 56 1010.6
20260506190310 49 277 3.5 6.1 0.00 0.00 0.00 57 1010.7
20260506180807 47 336 2.6 5.2 0.00 0.00 0.00 60 1011.0
20260506170307 44 273 2.6 5.2 0.00 0.00 0.00 68 1011.5
20260506160806 41 151 3.5 6.1 0.00 0.00 0.00 72 1011.5
20260506160307 41 137 2.6 6.1 0.00 0.00 0.00 73 1011.5
20260506150807 38 275 2.6 2.6 0.00 0.00 0.00 79 1011.5
20260506150307 38 267 2.6 4.3 0.00 0.00 0.00 79 1011.5
20260506140806 32 262 1.7 1.7 0.00 0.00 0.00 88 1011.4
20260506140308 32 280 1.7 2.6 0.00 0.00 0.00 89 1011.3
20260506130806 28 120 1.7 2.6 0.00 0.00 0.00 94 1010.8